Wind_Speed
96 98 100 104 107 111 112 113 109 108 109 110 110 111 112 112 112 114 115 115 114 113 113 114 113 111 110
104 105 109 112 115 117 119 118 117 116 117 119 121 123 123 123 123 124 124 124 123 121 118 119 118 119 118
111 114 117 120 122 124 123 121 120 124 127 129 130 131 131 132 132 129 124 119 116 114 111 110 107 110 110
121 124 127 129 130 130 123 126 127 132 133 134 135 132 129 124 119 117 115 112 108 107 105 104 103 103 103
128 130 133 137 135 129 130 131 134 135 129 121 115 115 115 113 111 108 105 105 105 104 103 103 102 102 101
136 139 139 131 132 132 133 135 128 123 112 111 111 108 108 107 107 102 97 94 93 92 91 93 93 95 98
142 141 135 136 135 135 130 119 112 109 102 102 98 94 93 94 93 93 91 88 87 86 85 86 87 88 89
142 144 142 141 134 122 113 108 107 101 90 85 83 82 81 81 80 80 78 76 74 73 74 74 75 78 81
147 147 143 130 119 111 107 103 94 87 78 73 70 70 71 71 68 66 65 65 64 63 63 65 66 66 71
148 140 129 120 113 106 95 86 79 77 68 67 63 59 66 65 62 59 59 59 59 58 59 60 60 60 63
133 122 115 112 104 92 82 77 72 68 64 62 62 58 54 60 55 50 50 51 52 52 53 55 56 56 59
119 111 104 96 89 83 77 69 63 61 61 57 56 54 52 52 52 49 46 46 47 46 47 49 52 51 53
107 98 89 82 79 74 67 64 59 57 54 52 50 49 48 48 47 46 44 41 43 43 42 43 46 48 48
96 87 80 75 69 64 61 58 55 51 49 48 47 46 44 44 43 42 41 38 37 37 37 38 40 41 44
86 79 73 66 61 58 55 54 51 48 47 46 44 42 41 41 39 37 35 34 33 32 32 33 34 35 37
78 72 65 60 56 53 51 48 46 47 45 43 41 39 39 38 37 36 34 31 29 28 27 27 27 28 29
69 63 58 55 52 50 47 46 46 45 44 42 40 38 37 35 33 33 32 29 27 26 24 22 21 22 23
Wind_Direction
299 300 300 300 301 302 303 303 300 297 295 294 293 291 290 288 286 285 284 283 281 279 277 274 272 270 269
300 300 300 301 301 302 303 301 301 298 297 296 294 292 290 289 286 285 284 282 280 279 277 274 271 269 267
301 301 301 302 303 304 303 302 302 302 299 296 294 292 291 289 288 286 285 282 279 276 273 270 267 265 263
303 302 303 304 304 304 305 305 304 301 300 296 294 293 290 287 285 282 281 278 276 274 272 269 267 263 261
303 303 304 304 305 307 307 306 303 301 299 297 292 290 288 287 285 281 278 276 274 272 270 268 266 264 261
304 304 305 306 307 308 310 307 304 300 299 297 294 292 288 285 284 283 280 278 276 273 270 267 265 262 260
306 306 307 309 311 311 308 306 302 299 298 294 292 289 287 284 283 283 281 279 277 274 272 269 266 262 258
308 309 311 312 311 309 306 304 302 300 299 295 293 289 286 283 282 282 281 281 278 275 272 268 265 261 259
309 311 312 311 310 308 307 305 303 301 301 297 293 291 289 287 286 285 284 281 279 276 272 269 265 259 256
309 311 310 309 308 308 307 305 304 304 304 301 299 297 294 291 290 289 286 283 280 276 273 269 265 260 255
311 310 309 308 308 308 309 309 309 307 306 304 302 299 295 294 294 292 287 284 282 279 275 271 267 261 257
310 309 308 309 310 310 310 310 310 308 306 304 303 303 301 298 298 297 293 290 285 280 276 273 270 265 259
310 310 310 310 310 310 310 311 310 308 306 306 306 305 304 302 301 298 296 291 287 284 280 273 269 267 261
312 312 312 312 311 311 312 311 311 310 310 310 309 307 306 304 303 301 299 296 291 288 283 276 270 266 263
313 312 313 312 313 313 313 312 311 311 312 312 312 311 310 309 307 306 304 300 297 293 287 281 275 268 264
313 313 313 314 314 313 312 312 313 313 314 315 314 313 313 312 311 312 311 308 303 299 293 286 278 270 265
314 314 314 314 314 314 315 316 316 317 317 317 317 317 316 314 312 312 312 311 311 308 302 293 285 275 265
Height
10528 10518 10508 10497 10484 10472 10463 10456 10447 10438 10431 10424 10416 10410 10405 10399 10395 10391 10388 10385 10383 10383 10384 10385 10387 10389 10395
10502 10493 10483 10470 10459 10449 10437 10424 10415 10406 10394 10385 10376 10367 10362 10357 10352 10347 10343 10342 10341 10340 10339 10342 10343 10345 10348
10475 10463 10452 10440 10431 10418 10406 10397 10385 10372 10357 10345 10334 10325 10316 10305 10299 10297 10294 10291 10291 10289 10289 10291 10293 10297 10300
10440 10428 10415 10404 10394 10386 10379 10362 10350 10331 10320 10306 10287 10272 10260 10255 10253 10246 10242 10241 10241 10241 10243 10245 10248 10252 10257
10410 10397 10381 10368 10354 10346 10337 10325 10309 10287 10274 10263 10244 10231 10213 10204 10200 10198 10198 10196 10195 10197 10198 10200 10203 10208 10215
10375 10361 10350 10333 10322 10310 10294 10277 10265 10237 10227 10218 10197 10190 10175 10162 10150 10150 10153 10154 10155 10155 10159 10160 10163 10166 10170
10337 10317 10310 10291 10279 10268 10249 10232 10213 10202 10197 10180 10164 10150 10139 10125 10119 10114 10113 10117 10119 10119 10120 10121 10123 10127 10132
10295 10280 10263 10251 10237 10226 10213 10199 10173 10162 10157 10144 10130 10115 10105 10096 10091 10087 10086 10086 10086 10086 10084 10084 10087 10091 10095
10263 10240 10227 10212 10199 10190 10172 10161 10143 10129 10125 10114 10102 10090 10077 10070 10068 10065 10063 10059 10057 10057 10055 10054 10055 10059 10061
10235 10214 10194 10179 10165 10156 10145 10130 10117 10103 10098 10083 10077 10073 10053 10048 10046 10045 10040 10036 10031 10030 10029 10028 10027 10031 10032
10212 10192 10172 10152 10136 10125 10116 10105 10093 10081 10072 10062 10053 10049 10043 10025 10025 10025 10020 10015 10011 10008 10006 10003 10003 10006 10007
10185 10167 10149 10130 10113 10101 10091 10082 10076 10065 10054 10048 10038 10030 10023 10015 10006 10004 10002 9996 9991 9990 9987 9984 9982 9984 9986
10160 10142 10127 10112 10097 10085 10075 10065 10059 10050 10041 10032 10024 10016 10008 10000 9994 9987 9984 9981 9974 9971 9969 9967 9964 9963 9964
10132 10117 10105 10093 10080 10068 10059 10050 10043 10036 10028 10019 10011 10004 9997 9988 9981 9975 9968 9964 9961 9956 9952 9950 9948 9947 9946
10112 10098 10086 10075 10065 10056 10047 10038 10029 10022 10015 10007 9999 9991 9984 9976 9969 9963 9958 9952 9947 9943 9939 9936 9934 9932 9932
10093 10080 10070 10060 10052 10044 10035 10027 10018 10011 10003 9996 9990 9982 9974 9966 9959 9953 9947 9942 9937 9932 9928 9924 9922 9920 9920
10077 10066 10057 10048 10040 10032 10024 10016 10008 10000 9993 9986 9979 9972 9965 9959 9952 9945 9939 9933 9928 9923 9919 9915 9912 9910 9909